Weather History for NW Arkansas Airport, AR

Change the Weather History Date:

Saturday, June 15, 2013

  Actual Average Record
Temperature  
Mean Temperature 79 °F -  
Max Temperature 91 °F - - ()
Min Temperature 69 °F - - ()
Cooling Degree Days 14    
Growing Degree Days 29 (Base 50)    
Moisture  
Dew Point 67 °F    
Average Humidity 75    
Maximum Humidity 96    
Minimum Humidity 52    
Precipitation  
Precipitation 0.22 in - - ()
Sea Level Pressure  
Sea Level Pressure 29.98 in    
Wind  
Wind Speed 7 mph (South)    
Max Wind Speed 15 mph    
Max Gust Speed -    
Visibility 10 miles    
Events Rain , Thunderstorm    
T = Trace of Precipitation, MM = Missing Value Source: NWS Daily Summary

Daily Weather History Graph

Daily Weather History Graph

Search for Another Location

Airport:

Trip Planner

Search our weather history database for the weather conditions in past years. The results will help you decide how hot, cold, wet, or windy it might be!

Date:

Astronomy

Jun. 15, 2013 Rise Set
Actual Time 5:59 AM CDT 8:36 PM CDT
Civil Twilight 5:28 AM CDT 9:06 PM CDT
Nautical Twilight 4:51 AM CDT 9:44 PM CDT
Astronomical Twilight 4:08 AM CDT 10:26 PM CDT
Moon 12:24 PM CDT (6/15) 12:22 AM CDT (6/15)
Length of Visible Light 15h 38m
Length of Day
14h 37m
Waxing Crescent, 40% of the Moon is Illuminated
Jun 15
Waxing Crescent
Jun 16
First Quarter
Jun 23
Full
Jun 29
Last Quarter
Jul 8
New

Hourly Weather History & Observations

Time (CDT) Temp. Heat Index Dew Point Humidity Pressure Visibility Wind Dir Wind Speed Gust Speed Precip Events Conditions
12:53 AM 75.9 °F - 71.1 °F 85% 29.99 in 10.0 mi SSE 5.8 mph - N/A   Mostly Cloudy
1:53 AM 73.9 °F - 68.0 °F 82% 29.97 in 10.0 mi SSE 6.9 mph - N/A   Clear
2:53 AM 73.0 °F - 66.0 °F 79% 29.98 in 10.0 mi SSE 5.8 mph - N/A   Clear
4:53 AM 71.1 °F - 64.9 °F 81% 29.98 in 10.0 mi South 4.6 mph - N/A   Partly Cloudy
5:53 AM 70.0 °F - 64.0 °F 81% 29.98 in 10.0 mi South 5.8 mph - N/A   Clear
6:53 AM 71.1 °F - 64.0 °F 78% 29.98 in 10.0 mi Calm Calm - N/A   Clear
7:53 AM 73.0 °F - 64.0 °F 73% 29.98 in 10.0 mi SSE 4.6 mph - N/A   Clear
8:53 AM 75.9 °F - 64.9 °F 69% 30.00 in 10.0 mi South 5.8 mph - N/A   Clear
9:53 AM 79.0 °F - 64.9 °F 62% 30.01 in 10.0 mi South 12.7 mph - N/A   Clear
10:53 AM 84.0 °F 86.5 °F 66.9 °F 56% 30.01 in 10.0 mi South 11.5 mph - N/A   Scattered Clouds
11:53 AM 84.9 °F 88.2 °F 68.0 °F 57% 30.00 in 10.0 mi South 9.2 mph - N/A   Clear
12:53 PM 88.0 °F 92.9 °F 70.0 °F 55% 29.97 in 10.0 mi SSW 9.2 mph - N/A   Clear
1:53 PM 88.0 °F 92.1 °F 69.1 °F 53% 29.96 in 10.0 mi South 10.4 mph - N/A   Partly Cloudy
2:53 PM 89.1 °F 93.7 °F 69.1 °F 52% 29.94 in 10.0 mi SSW 12.7 mph - N/A   Partly Cloudy
3:53 PM 84.9 °F 88.2 °F 68.0 °F 57% 29.94 in 10.0 mi SSW 11.5 mph - N/A   Clear
4:53 PM 82.9 °F 87.0 °F 70.0 °F 65% 29.93 in 10.0 mi South 4.6 mph - N/A   Partly Cloudy
5:53 PM 80.1 °F 83.2 °F 70.0 °F 71% 29.96 in 10.0 mi West 9.2 mph - N/A   Mostly Cloudy
6:35 PM 75.2 °F - 68.0 °F 78% 30.02 in 10.0 mi NW 13.8 mph - N/A   Overcast
6:48 PM 73.4 °F - 68.0 °F 83% 30.01 in 10.0 mi NNW 15.0 mph - N/A   Scattered Clouds
6:53 PM 73.9 °F - 68.0 °F 82% 29.97 in 10.0 mi NNW 12.7 mph - N/A   Scattered Clouds
7:50 PM 71.6 °F - 68.0 °F 88% 30.05 in 10.0 mi North 8.1 mph - N/A Thunderstorm Thunderstorm
7:53 PM 72.0 °F - 68.0 °F 87% 30.01 in 10.0 mi NNW 6.9 mph - N/A Thunderstorm Thunderstorm
8:53 PM 69.1 °F - 66.9 °F 93% 30.02 in 4.0 mi Calm Calm - 0.17 in Rain , Thunderstorm Thunderstorms and Rain
9:53 PM 69.1 °F - 68.0 °F 96% 29.94 in 10.0 mi ENE 9.2 mph - 0.04 in   Mostly Cloudy
10:53 PM 69.1 °F - 68.0 °F 96% 30.02 in 10.0 mi SSW 13.8 mph - 0.00 in Rain Light Rain
11:53 PM 70.0 °F - 68.0 °F 93% 29.98 in 10.0 mi SE 6.9 mph - 0.01 in Rain Light Rain